SCP
0 0 0 0 0 0 0 0 0 0 0 0 0 0 0 0 0 0 0 0 0 0 0 0 0 0 0 0 0 0 0 0 0 0 0 0 0 0 0 0 0 0 0
0 0 0 0 0 0 0 0 0 0 0 0 0 0 0 0 0 0 0 0 0 0 0 0 0 0 0 0 0 0 0 0 0 0 0 0 0 0 0 0 0 0 0
0 0 0 0 0 0 0 0 0 0 0 0 0 0 0 0 0 0 0 0 0 0 0 0 0 0 0 0 0 0 0 0 0 0 0 0 0 0 0 0 0 0 0
0 0 0 0 0 0 0 0 0 0 0 0 0 0 0 0 0 0 0 0 0 -0 0 0 0 0 0 0 0 0 0 0 0 0 0 0 0 0 0 0 0 0 0
0 0 0 0 0 0 0 0 0 0 0 0 0 0 0 0 0 -0 -0 -0 -0 -0 -0 -0 -0 -0 0 0 0 0 0 0 0 0 0 0 0 0 0 0 0 0 0
0 0 0 0 0 0 0 0 0 0 0 0 0 0 0 0 -0 -0 -0 -0 -0 -0 -0 -0 -0 -0 -0 -0 -0 -0 -0 0 0 0 0 0 0 0 0 0 0 0 0
0 0 0 0 0 0 0 0 0 0 0 0 0 0 0 0 -0 -0 -0 -0 -0 -0 -0 -0 -0 -0 -0 -0 -0 -0 -0 -0 -0 0 0 0 0 0 0 0 0 0 0
0 0 0 0 0 0 0 0 0 0 0 0 0 0 0 -0 -0 -0 -0 -0 -0 -0 -0 -0 -0 -0 -0 -0 -0 -0 -0 -0 -0 0 0 0 0 0 0 0 0 0 0
0 0 0 0 0 0 0 0 0 0 0 0 0 0 -0 0 -0 -0 -0 -0 -0 -0 -0 -0 -0 -0 -0 -0 -0 -0 -0 -0 0 -0 0 0 0 0 0 0 0 0 0
0 0 0 0 0 0 0 0 0 0 0 0 0 0 -0 -0 -0 -0 -0 -0 -0 -0 -0 -0 -0 -0 -0 -0 -0 -0 0 0 0 0 0 0 0 0 0 0 0 0 0
0 0 0 0 0 0 0 0 0 0 0 0 0 0 0 -0 -0 -0 -0 -0 -0 -0 -0 -0 -0 -0 -0 -0 -0 0 0 0 0 0 0 0 0 0 0 0 0 0 0
0 0 0 0 0 0 0 0 0 0 0 0 0 0 0 -0 -0 -0 -0 -0 -0 -0 -0 -0 -0 -0 -0 -0 0 -0 0 0 0 0 0 0 0 0 0 0 0 0 0
0 0 0 0 0 0 0 0 0 0 0 0 0 0 0 0 0 -0 -0 -0 -0 -0 -0 -0 -0 -0 -0 -0 0 0 0 0 0 0 0 0 0 0 0 0 0 0 0
0 0 0 0 0 0 0 0 0 0 0 0 0 0 0 0 0 0 0 -0 -0 -0 -0 -0 -0 -0 -0 0 0 0 0 0 0 0 0 0 0 0 0 0 0 0 0
0 0 0 0 0 0 0 0 0 0 0 0 0 0 0 0 0 0 0 0 0 0 -0 -0 0 0 0 0 0 0 0 0 0 0 0 0 0 0 0 0 0 0 0
0 0 0 0 0 0 0 0 0 0 0 0 0 0 0 0 -0 -0 -0 -0 -0 -0 -0 -0 0 0 0 0 0 0 0 0 0 0 0 0 0 0 0 0 0 0 0
0 0 0 0 0 0 0 0 0 0 0 0 -0 -0 -0 0 -0 -0 -0 -0 -0 -0 -0 0 0 0 0 0 0 0 0 0 0 0 0 0 0 0 0 0 0 0 0
0 0 0 0 0 0 0 0 0 0 0 0 0 0 0 0 -0 -0 -0 0 0 0 0 0 0 0 0 0 0 0 0 0 0 0 0 0 0 0 0 0 0 0 0
0 0 0 0 0 0 0 0 0 0 0 0 0 0 0 0 0 -0 0 0 0 0 0 0 0 0 0 0 0 0 0 0 0 0 0 0 0 0 0 0 0 0 0
0 0 0 0 0 0 0 0 0 0 0 0 0 0 0 0 0 0 0 0 0 0 -0 0 0 0 0 0 0 0 0 0 0 0 0 0 0 0 0 0 0 0 0
0 0 0 0 0 0 0 0 0 0 0 0 0 0 0 0 0 0 0 0 0 0 -0 0 0 0 0 0 0 0 0 0 0 0 0 0 0 0 0 0 0 0 0
0 0 0 0 0 0 0 0 0 0 0 0 0 0 0 0 0 0 0 0 0 0 -0 0 0 0 0 0 0 0 0 0 0 0 0 0 0 0 0 0 0 0 0
0 0 0 0 0 0 0 0 0 0 0 0 0 0 0 0 0 0 0 0 0 -0 -0 0 0 0 0 0 0 0 0 0 0 0 0 0 0 0 0 0 0 0 0
0 0 0 0 0 0 0 0 0 0 0 0 0 0 0 0 0 0 0 0 -0 -0 -0 0 0 0 0 0 0 0 0 0 0 0 0 0 0 0 0 0 0 0 0
0 0 0 0 0 0 0 0 0 0 0 0 0 0 0 0 0 0 0 0 0 0 -0 -0 0 0 0 0 0 0 0 0 0 0 0 0 0 0 0 0 0 0 0
0 0 0 0 0 0 0 0 0 0 0 0 0 0 0 0 0 0 0 0 0 -0 -0 -0 0 0 0 0 0 0 0 0 0 0 0 0 0 0 0 0 0 0 0
Wind_Speed_500mb
7 25 37 37 28 20 31 37 38 34 30 27 27 28 22 25 21 18 10 17 23 23 15 11 10 8 5 11 4 2 3 4 11 12 12 13 13 10 10 12 19 20 21
12 13 18 23 21 32 33 46 41 31 30 30 28 25 31 26 23 19 13 12 19 20 13 11 8 4 6 6 10 6 8 6 10 18 15 12 13 10 11 11 9 15 18
13 11 15 15 13 37 43 47 35 32 33 28 30 31 34 29 27 23 20 14 10 9 14 12 9 8 6 7 8 10 9 11 17 10 14 10 7 5 7 9 11 12 14
21 17 17 25 21 40 41 40 38 30 30 30 30 31 31 29 27 25 23 18 14 9 14 13 11 8 5 6 9 3 11 11 17 16 12 10 4 1 3 2 3 7 13
29 22 26 27 39 42 37 31 32 30 29 34 35 32 31 31 30 27 22 19 15 18 18 13 7 4 3 4 16 21 20 18 17 12 11 9 3 1 5 5 5 6 8
31 26 38 40 36 35 30 27 26 26 23 20 21 23 31 35 29 29 27 23 19 16 13 10 14 19 25 31 28 25 18 10 13 12 12 8 5 3 6 7 8 8 7
42 41 38 35 34 30 25 25 22 22 27 28 28 25 28 35 34 36 31 26 23 29 31 35 36 32 25 22 20 17 16 15 12 12 11 12 10 8 8 8 7 7 6
52 46 40 38 32 25 27 30 31 30 33 35 31 29 26 35 32 34 39 39 44 46 40 32 32 34 28 19 17 19 22 23 22 18 16 17 17 16 14 14 14 14 15
51 45 42 37 30 29 34 34 39 39 39 40 32 33 38 38 40 42 50 52 49 47 40 32 29 31 30 23 18 21 25 27 24 24 26 27 26 25 26 22 21 18 15
63 50 41 33 28 41 39 44 44 42 43 44 45 48 53 55 48 48 46 45 46 43 40 37 28 28 31 23 18 21 24 31 28 27 27 28 28 27 24 25 25 23 19
64 48 40 37 43 42 44 43 46 46 51 52 52 61 57 51 49 43 38 39 36 41 37 37 33 24 23 23 23 24 30 31 28 27 28 28 27 28 30 30 30 29 23
58 51 46 46 45 48 45 47 47 52 59 70 69 66 61 53 46 40 34 33 34 32 36 34 32 26 26 25 25 29 32 28 29 27 27 30 31 34 36 37 37 36 33
63 57 54 49 48 53 52 57 68 72 77 76 71 68 60 53 49 42 39 35 31 32 34 32 32 28 25 28 30 30 30 29 29 30 33 36 36 36 33 32 32 32 31
63 61 58 54 56 57 62 71 73 73 70 69 67 63 60 57 53 47 40 33 30 31 34 34 31 31 30 32 32 31 30 31 32 34 34 34 33 33 35 36 36 38 35
66 65 60 58 61 66 68 67 63 58 56 61 54 51 59 55 48 36 31 33 32 32 33 35 34 33 33 32 31 31 32 33 33 33 33 32 34 34 36 38 41 41 38
67 67 64 65 69 72 78 76 65 53 48 34 34 46 51 49 46 39 34 32 32 30 32 35 37 35 33 32 30 32 33 32 32 31 31 32 33 34 36 39 40 41 38
72 68 66 69 69 73 72 69 71 62 49 35 43 46 47 46 40 37 35 34 33 33 29 35 35 33 33 31 31 31 31 30 31 30 30 32 33 34 37 40 40 40 38
65 66 68 70 69 68 70 74 72 71 63 56 44 47 43 39 37 34 31 33 39 35 29 33 34 33 32 30 30 29 29 29 29 29 29 31 32 33 37 39 39 38 40
67 65 64 70 68 68 78 73 67 66 66 64 61 51 43 39 37 33 31 24 32 37 35 35 32 31 30 28 27 28 26 26 28 28 29 30 31 32 35 37 36 36 38
63 61 61 70 76 85 75 70 66 66 70 69 67 60 54 46 40 37 34 34 34 34 35 33 32 31 28 25 25 25 24 25 26 26 27 28 29 31 33 35 36 35 38
61 57 57 67 85 78 72 67 50 63 67 67 65 57 46 39 38 35 35 35 32 32 33 31 30 28 26 24 23 23 23 22 24 24 26 26 28 29 32 34 35 34 34
53 55 60 69 79 72 68 58 46 56 59 57 59 54 47 41 37 36 34 33 33 32 30 28 28 27 24 22 21 21 21 21 22 22 24 24 26 28 30 32 34 34 33
46 55 59 64 71 69 62 54 49 52 56 56 57 56 53 46 39 36 33 30 29 30 30 29 25 24 23 21 19 20 20 20 20 21 21 22 24 26 29 30 32 34 35
39 57 59 57 59 62 61 56 51 53 55 56 57 56 53 48 42 37 33 30 28 28 28 27 26 24 21 19 18 19 19 19 19 19 20 20 22 24 27 29 31 33 34
30 53 58 54 60 61 58 55 55 56 57 57 57 57 54 50 45 39 34 30 27 24 24 25 24 23 21 18 17 16 17 19 18 18 18 19 20 22 24 27 29 30 33
12 41 58 53 54 57 58 58 57 57 59 59 58 58 57 54 48 42 37 32 28 25 21 22 23 22 20 18 16 15 15 16 17 17 17 18 19 21 23 25 27 28 31
Wind_Direction_500mb
110 169 176 183 176 192 185 220 209 199 195 186 185 197 189 187 196 196 205 176 173 167 164 155 148 152 169 242 236 247 286 294 224 169 173 173 186 195 234 258 258 260 251
107 123 167 183 205 214 218 208 192 186 194 191 186 192 185 194 196 188 182 157 169 175 168 161 148 176 254 243 265 285 258 243 171 163 149 171 201 222 237 252 243 243 245
196 193 206 188 179 214 196 183 183 186 188 181 182 174 178 192 186 187 193 201 199 232 192 167 186 239 265 266 235 295 262 200 157 138 138 166 167 212 239 236 230 235 252
213 218 225 215 219 199 183 183 183 186 183 185 186 185 182 192 192 192 198 202 206 222 172 191 234 243 261 255 280 190 148 160 140 132 128 153 160 242 268 247 259 266 277
211 221 204 193 184 177 168 175 189 189 198 209 205 197 195 196 197 201 199 193 200 175 178 201 207 214 260 170 132 121 128 136 143 137 139 128 106 266 259 306 320 308 310
205 194 172 154 163 174 180 187 197 188 192 194 187 186 194 194 189 191 189 190 174 170 150 136 119 117 128 127 129 131 130 114 128 124 122 119 108 54 359 339 322 310 311
192 181 179 179 180 180 192 186 163 161 157 148 141 149 165 183 189 196 186 169 152 128 115 114 111 103 105 119 125 132 128 116 112 92 80 82 66 45 17 2 359 352 347
181 178 180 180 185 184 173 160 153 147 148 146 143 147 158 170 180 186 158 144 130 120 119 123 118 111 101 103 115 119 110 100 87 80 74 73 60 51 44 39 27 16 4
190 182 183 185 183 175 166 159 153 151 143 139 141 153 140 144 144 141 145 136 130 125 122 119 115 109 101 90 97 102 101 89 78 67 61 58 54 49 46 42 42 37 18
194 185 179 182 191 170 165 159 159 154 144 138 129 129 132 130 133 139 136 133 126 129 127 118 111 110 109 101 94 89 93 87 75 72 69 66 60 58 54 49 43 35 25
187 176 168 177 175 169 166 165 162 155 145 148 137 132 127 127 130 131 134 130 127 130 128 123 114 108 108 103 91 90 84 82 80 76 72 68 62 54 48 41 33 27 24
176 172 169 179 169 168 166 162 158 152 149 139 134 131 129 128 128 132 132 128 129 131 126 123 122 119 103 96 98 87 84 84 82 80 76 69 58 49 41 33 25 17 10
172 172 172 177 173 169 164 155 147 145 144 141 140 136 134 136 135 136 138 132 129 129 127 124 119 111 109 108 97 94 93 90 86 80 70 61 53 48 39 31 25 26 28
172 172 173 175 172 169 161 155 150 150 149 150 148 144 145 145 144 146 143 138 138 132 124 119 117 118 118 108 103 101 96 90 81 72 66 60 53 43 36 34 32 31 31
172 171 173 174 171 164 160 156 155 159 159 153 153 151 149 147 144 138 131 131 130 123 126 124 125 123 115 110 108 104 95 88 77 71 65 58 48 42 39 36 35 33 31
171 170 175 172 169 164 162 160 157 148 145 137 142 147 145 142 139 139 136 132 128 126 133 130 127 121 119 115 111 103 96 87 77 69 61 54 47 43 40 39 36 35 31
169 173 172 171 166 163 163 159 150 143 138 138 146 152 151 144 142 141 139 136 132 130 136 132 127 128 123 118 111 102 95 86 75 66 57 51 46 42 40 40 38 37 34
171 173 170 166 163 163 162 152 151 148 148 146 151 154 152 146 144 143 144 147 140 137 140 133 133 130 125 119 111 102 94 85 74 62 55 51 45 42 41 40 38 39 38
170 167 166 162 163 162 156 158 158 158 157 151 151 156 153 149 142 140 139 148 144 144 143 139 137 132 127 121 110 103 95 84 72 60 53 49 44 42 43 43 42 42 40
173 169 168 167 162 159 161 163 162 166 162 158 158 160 159 159 152 149 147 147 149 146 142 143 140 134 130 122 111 103 95 83 70 59 53 50 45 43 43 43 42 40 41
170 169 168 165 163 162 165 163 164 170 169 165 164 163 157 153 149 147 144 145 148 145 144 145 141 137 132 122 112 103 95 83 70 60 54 50 47 44 44 43 43 43 42
171 168 168 166 166 166 166 163 173 174 173 170 166 162 156 154 150 144 143 145 145 144 144 144 143 138 133 124 113 104 97 85 71 60 54 51 48 44 45 44 44 43 41
173 168 168 169 171 171 169 169 178 175 175 174 173 166 160 159 155 148 143 140 142 145 147 147 146 142 135 128 119 110 102 87 74 62 56 52 49 46 46 46 45 43 40
173 168 169 171 174 174 171 176 181 178 178 177 177 172 167 164 161 156 150 142 138 143 148 150 147 145 140 132 122 113 103 90 76 63 58 54 50 48 46 46 46 44 42
169 172 171 175 175 176 178 184 183 181 181 180 178 178 176 172 170 167 160 154 145 137 146 151 151 149 147 140 127 116 105 92 76 62 57 55 51 49 46 47 47 45 45
154 175 175 177 178 181 185 184 183 183 183 181 181 183 185 184 179 177 173 168 161 151 145 152 155 156 153 148 138 125 110 95 78 64 57 54 50 46 44 43 44 43 42
Wind_Speed_850mb
7 25 37 37 28 20 31 37 38 34 30 27 27 28 22 25 21 18 10 17 23 23 15 11 10 8 5 11 4 2 3 4 11 12 12 13 13 10 10 12 19 20 21
12 13 18 23 21 32 33 46 41 31 30 30 28 25 31 26 23 19 13 12 19 20 13 11 8 4 6 6 10 6 8 6 10 18 15 12 13 10 11 11 9 15 18
13 11 15 15 13 37 43 47 35 32 33 28 30 31 34 29 27 23 20 14 10 9 14 12 9 8 6 7 8 10 9 11 17 10 14 10 7 5 7 9 11 12 14
21 17 17 25 21 40 41 40 38 30 30 30 30 31 31 29 27 25 23 18 14 9 14 13 11 8 5 6 9 3 11 11 17 16 12 10 4 1 3 2 3 7 13
29 22 26 27 39 42 37 31 32 30 29 34 35 32 31 31 30 27 22 19 15 18 18 13 7 4 3 4 16 21 20 18 17 12 11 9 3 1 5 5 5 6 8
31 26 38 40 36 35 30 27 26 26 23 20 21 23 31 35 29 29 27 23 19 16 13 10 14 19 25 31 28 25 18 10 13 12 12 8 5 3 6 7 8 8 7
42 41 38 35 34 30 25 25 22 22 27 28 28 25 28 35 34 36 31 26 23 29 31 35 36 32 25 22 20 17 16 15 12 12 11 12 10 8 8 8 7 7 6
52 46 40 38 32 25 27 30 31 30 33 35 31 29 26 35 32 34 39 39 44 46 40 32 32 34 28 19 17 19 22 23 22 18 16 17 17 16 14 14 14 14 15
51 45 42 37 30 29 34 34 39 39 39 40 32 33 38 38 40 42 50 52 49 47 40 32 29 31 30 23 18 21 25 27 24 24 26 27 26 25 26 22 21 18 15
63 50 41 33 28 41 39 44 44 42 43 44 45 48 53 55 48 48 46 45 46 43 40 37 28 28 31 23 18 21 24 31 28 27 27 28 28 27 24 25 25 23 19
64 48 40 37 43 42 44 43 46 46 51 52 52 61 57 51 49 43 38 39 36 41 37 37 33 24 23 23 23 24 30 31 28 27 28 28 27 28 30 30 30 29 23
58 51 46 46 45 48 45 47 47 52 59 70 69 66 61 53 46 40 34 33 34 32 36 34 32 26 26 25 25 29 32 28 29 27 27 30 31 34 36 37 37 36 33
63 57 54 49 48 53 52 57 68 72 77 76 71 68 60 53 49 42 39 35 31 32 34 32 32 28 25 28 30 30 30 29 29 30 33 36 36 36 33 32 32 32 31
63 61 58 54 56 57 62 71 73 73 70 69 67 63 60 57 53 47 40 33 30 31 34 34 31 31 30 32 32 31 30 31 32 34 34 34 33 33 35 36 36 38 35
66 65 60 58 61 66 68 67 63 58 56 61 54 51 59 55 48 36 31 33 32 32 33 35 34 33 33 32 31 31 32 33 33 33 33 32 34 34 36 38 41 41 38
67 67 64 65 69 72 78 76 65 53 48 34 34 46 51 49 46 39 34 32 32 30 32 35 37 35 33 32 30 32 33 32 32 31 31 32 33 34 36 39 40 41 38
72 68 66 69 69 73 72 69 71 62 49 35 43 46 47 46 40 37 35 34 33 33 29 35 35 33 33 31 31 31 31 30 31 30 30 32 33 34 37 40 40 40 38
65 66 68 70 69 68 70 74 72 71 63 56 44 47 43 39 37 34 31 33 39 35 29 33 34 33 32 30 30 29 29 29 29 29 29 31 32 33 37 39 39 38 40
67 65 64 70 68 68 78 73 67 66 66 64 61 51 43 39 37 33 31 24 32 37 35 35 32 31 30 28 27 28 26 26 28 28 29 30 31 32 35 37 36 36 38
63 61 61 70 76 85 75 70 66 66 70 69 67 60 54 46 40 37 34 34 34 34 35 33 32 31 28 25 25 25 24 25 26 26 27 28 29 31 33 35 36 35 38
61 57 57 67 85 78 72 67 50 63 67 67 65 57 46 39 38 35 35 35 32 32 33 31 30 28 26 24 23 23 23 22 24 24 26 26 28 29 32 34 35 34 34
53 55 60 69 79 72 68 58 46 56 59 57 59 54 47 41 37 36 34 33 33 32 30 28 28 27 24 22 21 21 21 21 22 22 24 24 26 28 30 32 34 34 33
46 55 59 64 71 69 62 54 49 52 56 56 57 56 53 46 39 36 33 30 29 30 30 29 25 24 23 21 19 20 20 20 20 21 21 22 24 26 29 30 32 34 35
39 57 59 57 59 62 61 56 51 53 55 56 57 56 53 48 42 37 33 30 28 28 28 27 26 24 21 19 18 19 19 19 19 19 20 20 22 24 27 29 31 33 34
30 53 58 54 60 61 58 55 55 56 57 57 57 57 54 50 45 39 34 30 27 24 24 25 24 23 21 18 17 16 17 19 18 18 18 19 20 22 24 27 29 30 33
12 41 58 53 54 57 58 58 57 57 59 59 58 58 57 54 48 42 37 32 28 25 21 22 23 22 20 18 16 15 15 16 17 17 17 18 19 21 23 25 27 28 31
Wind_Direction_850mb
110 169 176 183 176 192 185 220 209 199 195 186 185 197 189 187 196 196 205 176 173 167 164 155 148 152 169 242 236 247 286 294 224 169 173 173 186 195 234 258 258 260 251
107 123 167 183 205 214 218 208 192 186 194 191 186 192 185 194 196 188 182 157 169 175 168 161 148 176 254 243 265 285 258 243 171 163 149 171 201 222 237 252 243 243 245
196 193 206 188 179 214 196 183 183 186 188 181 182 174 178 192 186 187 193 201 199 232 192 167 186 239 265 266 235 295 262 200 157 138 138 166 167 212 239 236 230 235 252
213 218 225 215 219 199 183 183 183 186 183 185 186 185 182 192 192 192 198 202 206 222 172 191 234 243 261 255 280 190 148 160 140 132 128 153 160 242 268 247 259 266 277
211 221 204 193 184 177 168 175 189 189 198 209 205 197 195 196 197 201 199 193 200 175 178 201 207 214 260 170 132 121 128 136 143 137 139 128 106 266 259 306 320 308 310
205 194 172 154 163 174 180 187 197 188 192 194 187 186 194 194 189 191 189 190 174 170 150 136 119 117 128 127 129 131 130 114 128 124 122 119 108 54 359 339 322 310 311
192 181 179 179 180 180 192 186 163 161 157 148 141 149 165 183 189 196 186 169 152 128 115 114 111 103 105 119 125 132 128 116 112 92 80 82 66 45 17 2 359 352 347
181 178 180 180 185 184 173 160 153 147 148 146 143 147 158 170 180 186 158 144 130 120 119 123 118 111 101 103 115 119 110 100 87 80 74 73 60 51 44 39 27 16 4
190 182 183 185 183 175 166 159 153 151 143 139 141 153 140 144 144 141 145 136 130 125 122 119 115 109 101 90 97 102 101 89 78 67 61 58 54 49 46 42 42 37 18
194 185 179 182 191 170 165 159 159 154 144 138 129 129 132 130 133 139 136 133 126 129 127 118 111 110 109 101 94 89 93 87 75 72 69 66 60 58 54 49 43 35 25
187 176 168 177 175 169 166 165 162 155 145 148 137 132 127 127 130 131 134 130 127 130 128 123 114 108 108 103 91 90 84 82 80 76 72 68 62 54 48 41 33 27 24
176 172 169 179 169 168 166 162 158 152 149 139 134 131 129 128 128 132 132 128 129 131 126 123 122 119 103 96 98 87 84 84 82 80 76 69 58 49 41 33 25 17 10
172 172 172 177 173 169 164 155 147 145 144 141 140 136 134 136 135 136 138 132 129 129 127 124 119 111 109 108 97 94 93 90 86 80 70 61 53 48 39 31 25 26 28
172 172 173 175 172 169 161 155 150 150 149 150 148 144 145 145 144 146 143 138 138 132 124 119 117 118 118 108 103 101 96 90 81 72 66 60 53 43 36 34 32 31 31
172 171 173 174 171 164 160 156 155 159 159 153 153 151 149 147 144 138 131 131 130 123 126 124 125 123 115 110 108 104 95 88 77 71 65 58 48 42 39 36 35 33 31
171 170 175 172 169 164 162 160 157 148 145 137 142 147 145 142 139 139 136 132 128 126 133 130 127 121 119 115 111 103 96 87 77 69 61 54 47 43 40 39 36 35 31
169 173 172 171 166 163 163 159 150 143 138 138 146 152 151 144 142 141 139 136 132 130 136 132 127 128 123 118 111 102 95 86 75 66 57 51 46 42 40 40 38 37 34
171 173 170 166 163 163 162 152 151 148 148 146 151 154 152 146 144 143 144 147 140 137 140 133 133 130 125 119 111 102 94 85 74 62 55 51 45 42 41 40 38 39 38
170 167 166 162 163 162 156 158 158 158 157 151 151 156 153 149 142 140 139 148 144 144 143 139 137 132 127 121 110 103 95 84 72 60 53 49 44 42 43 43 42 42 40
173 169 168 167 162 159 161 163 162 166 162 158 158 160 159 159 152 149 147 147 149 146 142 143 140 134 130 122 111 103 95 83 70 59 53 50 45 43 43 43 42 40 41
170 169 168 165 163 162 165 163 164 170 169 165 164 163 157 153 149 147 144 145 148 145 144 145 141 137 132 122 112 103 95 83 70 60 54 50 47 44 44 43 43 43 42
171 168 168 166 166 166 166 163 173 174 173 170 166 162 156 154 150 144 143 145 145 144 144 144 143 138 133 124 113 104 97 85 71 60 54 51 48 44 45 44 44 43 41
173 168 168 169 171 171 169 169 178 175 175 174 173 166 160 159 155 148 143 140 142 145 147 147 146 142 135 128 119 110 102 87 74 62 56 52 49 46 46 46 45 43 40
173 168 169 171 174 174 171 176 181 178 178 177 177 172 167 164 161 156 150 142 138 143 148 150 147 145 140 132 122 113 103 90 76 63 58 54 50 48 46 46 46 44 42
169 172 171 175 175 176 178 184 183 181 181 180 178 178 176 172 170 167 160 154 145 137 146 151 151 149 147 140 127 116 105 92 76 62 57 55 51 49 46 47 47 45 45
154 175 175 177 178 181 185 184 183 183 183 181 181 183 185 184 179 177 173 168 161 151 145 152 155 156 153 148 138 125 110 95 78 64 57 54 50 46 44 43 44 43 42